This is the latest recevied weather packets stored in our database for station/object W5CMS-13. If no packets are shown the sender has not sent any weather packets the latest 10 day(s).
| Time | Temp. | Humidity | Pressure | Rain* | Wind** | Luminosity | Snow |
|---|---|---|---|---|---|---|---|
| 1788163516 | 30° C | 56% | 1013.9 hPa | 0 mm | - | - | - |
| 1788162916 | 30.56° C | 56% | 1013.8 hPa | 0 mm | - | - | - |
| 1788162316 | 30.56° C | 55% | 1013.7 hPa | 0 mm | - | - | - |
| 1788161717 | 30.56° C | 55% | 1013.8 hPa | 0 mm | - | - | - |
| 1788161116 | 30° C | 56% | 1013.7 hPa | 0 mm | - | - | - |
| 1788160516 | 30° C | 58% | 1013.6 hPa | 0 mm | - | - | - |
| 1788159916 | 29.44° C | 59% | 1013.6 hPa | 0 mm | - | - | - |
| 1788159316 | 30° C | 59% | 1013.7 hPa | 0 mm | - | - | - |
| 1788158716 | 30° C | 59% | 1013.7 hPa | 0 mm | - | - | - |
| 1788158116 | 30.56° C | 58% | 1013.8 hPa | 0 mm | - | - | - |
| 1788157516 | 30.56° C | 57% | 1013.7 hPa | 0 mm | - | - | - |
| 1788156916 | 31.11° C | 56% | 1013.6 hPa | 0 mm | - | - | - |
| 1788156316 | 31.11° C | 55% | 1013.6 hPa | 0 mm | - | - | - |
| 1788155716 | 31.11° C | 55% | 1013.7 hPa | 0 mm | - | - | - |
| 1788155116 | 31.11° C | 55% | 1013.9 hPa | 0 mm | - | - | - |
| 1788154516 | 31.11° C | 54% | 1013.9 hPa | 0 mm | - | - | - |
| 1788153916 | 31.67° C | 53% | 1013.8 hPa | 0 mm | - | - | - |
| 1788153316 | 31.67° C | 53% | 1013.6 hPa | 0 mm | - | - | - |
| 1788152718 | 31.67° C | 52% | 1013.6 hPa | 0 mm | - | - | - |
| 1788152117 | 31.67° C | 52% | 1013.5 hPa | 0 mm | - | - | - |
| 1788151517 | 32.22° C | 52% | 1013.5 hPa | 0 mm | - | - | - |
| 1788150916 | 32.22° C | 51% | 1013.5 hPa | 0 mm | - | - | - |
| 1788150316 | 32.22° C | 51% | 1013.5 hPa | 0 mm | - | - | - |
| 1788149716 | 32.22° C | 51% | 1013.5 hPa | 0 mm | - | - | - |
| 1788149116 | 32.22° C | 50% | 1013.5 hPa | 0 mm | - | - | - |
* Rain latest hour (hover to see other rain measurements)
** Current wind speed in m/s (hover to see current wind gust speed)